KC7YCE Weather Reports


time (UTC)temp
F
wind
direction
speed
knots
gust
knots
rain 1hr
in
rain 24hr
in
rain mn
in
humidity
%
barometer
mb
20260505040350 36 188 0.0 0.0 0.00 0.00 0.00 77 1016.0
20260505035320 36 188 0.0 0.0 0.00 0.00 0.00 76 1016.0
20260505034250 37 188 0.0 0.0 0.00 0.00 0.00 74 1016.0
20260505033223 38 188 0.0 0.0 0.00 0.00 0.00 74 1015.8
20260505032151 39 188 0.0 0.0 0.00 0.00 0.00 72 1015.7
20260505030051 41 188 0.0 0.0 0.00 0.00 0.00 68 1015.5
20260505025020 42 188 0.0 0.0 0.00 0.00 0.00 65 1015.5
20260505023951 44 187 0.0 0.0 0.00 0.00 0.00 62 1015.4
20260505022950 45 187 0.0 0.0 0.00 0.00 0.00 60 1015.4
20260505021921 46 187 0.0 1.7 0.00 0.00 0.00 58 1015.3
20260505020850 47 187 0.0 1.7 0.00 0.00 0.00 56 1015.3
20260505014822 49 148 0.0 2.6 0.00 0.00 0.00 54 1015.2
20260505013751 49 147 1.7 2.6 0.00 0.00 0.00 53 1015.2
20260505011750 50 143 2.6 3.5 0.00 0.00 0.00 50 1015.2
20260505010721 50 252 0.0 0.9 0.00 0.00 0.00 47 1015.3
20260505005721 51 253 0.0 0.9 0.00 0.00 0.00 47 1015.3
20260505003651 52 253 0.0 2.6 0.00 0.00 0.00 46 1015.3
20260505002621 52 231 0.0 2.6 0.00 0.00 0.00 44 1015.4
20260505001620 52 205 0.0 2.6 0.00 0.00 0.00 44 1015.3
20260505000621 53 258 0.9 2.6 0.00 0.00 0.00 41 1015.3
20260504235620 53 263 0.0 0.9 0.00 0.00 0.00 41 1015.3
20260504234620 53 143 0.9 3.5 0.00 0.00 0.00 39 1015.3
20260504232622 54 143 0.0 0.9 0.00 0.00 0.00 41 1015.3
20260504231552 55 155 0.9 3.5 0.00 0.00 0.00 40 1015.2
20260504224421 57 161 0.9 6.1 0.00 0.00 0.00 38 1015.2
20260504223422 57 161 0.0 6.1 0.00 0.00 0.00 40 1015.3
20260504221420 54 148 1.7 5.2 0.00 0.00 0.00 41 1015.5
20260504214250 54 161 0.0 6.1 0.00 0.00 0.00 42 1015.9
20260504213250 55 167 0.9 6.1 0.00 0.00 0.00 40 1016.1
20260504211150 59 326 0.0 2.6 0.00 0.00 0.00 31 1015.8
20260504205120 59 312 2.6 3.5 0.00 0.00 0.00 31 1015.9
20260504204121 56 301 0.9 2.6 0.00 0.00 0.00 34 1015.8
20260504203120 56 266 0.9 2.6 0.00 0.00 0.00 33 1015.8
20260504192049 57 28 0.0 3.5 0.00 0.00 0.00 28 1016.1
20260504183049 55 127 0.0 0.9 0.00 0.00 0.00 30 1016.6
20260504175050 54 121 0.0 2.6 0.00 0.00 0.00 35 1017.0
20260504171018 58 248 0.0 2.6 0.00 0.00 0.00 33 1017.3
20260504150948 53 97 0.9 1.7 0.00 0.00 0.00 35 1017.9
20260504140947 44 135 0.0 0.0 0.00 0.00 0.00 51 1018.3
20260504081546 33 146 0.9 0.9 0.00 0.00 0.00 65 1018.6
20260504050245 36 150 0.0 1.7 0.00 0.00 0.00 58 1019.3
20260504045245 37 158 0.0 0.9 0.00 0.00 0.00 57 1019.2
20260504044245 38 158 0.0 0.9 0.00 0.00 0.00 55 1019.3
20260504043215 39 158 0.0 0.9 0.00 0.00 0.00 52 1019.3
20260504042215 40 137 0.0 1.7 0.00 0.00 0.00 52 1019.3
20260504041215 40 138 0.0 1.7 0.00 0.00 0.00 51 1019.2